RADUGA 1 [-] 1 08513U 75123A 21111.51182578 -.00000142 00000-0 00000-0 0 9996 2 08513 7.5719 294.3347 0006229 193.0414 345.4265 1.00295820175932 RADUGA 2 [-] 1 09416U 76092A 21111.51287260 -.00000188 00000-0 00000-0 0 9999 2 09416 8.2255 296.2143 0026646 348.6585 193.9566 1.00256718110465 RADUGA 3 [-] 1 10159U 77071A 21111.14435431 .00000138 00000-0 00000-0 0 9991 2 10159 8.8303 298.6451 0007365 217.8726 140.5843 1.00291258158152 RADUGA 4 [-] 1 10987U 78073A 21111.44613715 -.00000363 00000-0 00000-0 0 9990 2 10987 9.4341 301.8628 0009323 359.3677 178.3715 1.00295494100729 RADUGA 5 [-] 1 11343U 79035A 21111.07884015 -.00000027 00000-0 00000-0 0 9995 2 11343 9.8742 304.4218 0006083 135.1222 225.4102 1.00255626110475 RADUGA 6 [-] 1 11708U 80016A 21111.51653652 -.00000329 00000-0 00000-0 0 9996 2 11708 10.2079 307.2411 0001879 130.0847 61.0894 1.00235612103286 RADUGA 7 [-] 1 12003U 80081A 21111.60507001 .00000108 00000-0 00000-0 0 9997 2 12003 10.3759 309.0659 0007653 257.4459 58.5487 1.00325328104424 RADUGA 8 [-] 1 12351U 81027A 21111.48076598 -.00000128 00000-0 00000-0 0 9995 2 12351 10.7013 309.7057 0081619 214.4691 113.4984 1.00413455103646 RADUGA 9 [-] 1 12618U 81069A 21111.51740887 -.00000350 00000-0 00000-0 0 9997 2 12618 10.8914 312.3849 0004853 101.1583 89.4449 1.00226307 28461 RADUGA 10 [-] 1 12897U 81102A 21111.08058487 -.00000111 00000-0 00000-0 0 9999 2 12897 10.9685 313.2920 0004898 144.4057 216.8167 1.00248247 98468 RADUGA 11 [-] 1 13669U 82113A 21111.41813443 -.00000157 00000-0 00000-0 0 9998 2 13669 12.8641 326.0946 0035922 243.1165 119.9339 0.97709802103148 RADUGA 12 [-] 1 13974U 83028A 21111.55238775 -.00000186 00000-0 00000-0 0 9999 2 13974 11.9926 322.5357 0004917 70.3063 99.6962 1.00283652150500 RADUGA 13 [-] 1 14307U 83088A 21111.41665142 -.00000169 00000-0 00000-0 0 9994 2 14307 13.0833 327.6813 0018576 32.6363 321.0011 0.98175066100455 RADUGA 14 [-] 1 14725U 84016A 21111.11134139 -.00000038 00000-0 00000-0 0 9999 2 14725 12.1456 326.0704 0005863 94.5877 257.7545 1.00249537 99211 RADUGA 15 [-] 1 15057U 84063A 21111.28448905 .00000096 00000-0 00000-0 0 9990 2 15057 12.2511 327.0525 0005388 114.8185 248.7696 1.00252125122227 RADUGA 16 [-] 1 15946U 85070A 21111.48513160 -.00000297 00000-0 00000-0 0 9998 2 15946 12.6383 331.5336 0002827 74.0584 283.7048 1.00203541103340 RADUGA 17 [-] 1 16250U 85107A 21111.45154578 -.00000325 00000-0 00000-0 0 9991 2 16250 12.7411 332.8556 0011696 158.7165 17.1412 1.00174774132812 RADUGA 18 [-] 1 16497U 86007A 21110.54795906 -.00000092 00000-0 00000-0 0 9990 2 16497 13.5139 335.4670 0073659 150.9750 204.5265 0.98811755127240 RADUGA 19 [-] 1 17046U 86082A 21111.45224366 -.00000222 00000-0 00000-0 0 9997 2 17046 13.8699 339.2514 0012389 119.3023 53.8613 0.98461969124370 RADUGA 20 [-] 1 17611U 87028A 21111.25018306 -.00000080 00000-0 00000-0 0 9991 2 17611 15.8325 342.8115 0030133 119.2460 97.5573 0.95961287120241 RADUGA 21 [-] 1 18631U 87100A 21111.43565110 -.00000298 00000-0 00000-0 0 9996 2 18631 13.9246 340.3783 0004392 74.8812 254.7057 1.00235582122205 RADUGA 22 [-] 1 19596U 88095A 21110.71229698 .00000132 00000-0 00000-0 0 9995 2 19596 13.8271 344.4842 0006210 92.6505 59.9623 1.00345023102767 RADUGA 23 [-] 1 19928U 89030A 21110.83255514 -.00000363 00000-0 00000-0 0 9990 2 19928 13.9324 346.2401 0019688 141.4898 133.7343 1.00227801115967 RADUGA-1 1 [-] 1 20083U 89048A 21111.43858809 -.00000194 00000-0 00000-0 0 9998 2 20083 14.6321 349.1848 0022726 95.5011 235.0675 0.98709521112686 RADUGA 24 [-] 1 20367U 89098A 21109.86687333 -.00000021 00000-0 00000-0 0 9993 2 20367 14.4646 348.6152 0002817 49.6628 186.4996 1.00335051114071 RADUGA 25 [-] 1 20499U 90016A 21111.12177191 -.00000299 00000-0 00000-0 0 9996 2 20499 14.2206 349.1791 0004807 89.4475 114.0823 1.00348706114027 RADUGA 26 [-] 1 21016U 90112A 21110.89455330 -.00000287 00000-0 00000-0 0 9993 2 21016 14.4584 352.3967 0009006 60.6984 214.2307 1.00258928111378 RADUGA-1 2 [-] 1 21038U 90116A 21110.89197965 -.00000271 00000-0 00000-0 0 9991 2 21038 14.4970 352.4824 0009551 71.4322 198.9015 1.00314787 28451 RADUGA 27 [-] 1 21132U 91014A 21111.52150896 -.00000359 00000-0 00000-0 0 9994 2 21132 15.0136 352.2065 0006267 50.8004 121.8138 1.00249928110436 RADUGA 28 [-] 1 21821U 91087A 21111.17490432 .00000124 00000-0 00000-0 0 9992 2 21821 14.7015 355.7660 0007853 82.4188 232.9325 1.00320892107436 RADUGA 29 [-] 1 22557U 93013A 21110.71100132 -.00000075 00000-0 00000-0 0 9990 2 22557 14.8040 359.9148 0007586 71.3965 107.9237 1.00159886102792 RADUGA 30 [-] 1 22836U 93062A 21111.23035512 -.00000060 00000-0 00000-0 0 9995 2 22836 14.8039 1.8424 0004380 1.8859 358.6101 1.00279795 27129 RADUGA-1 3 [-] 1 22981U 94008A 21110.78938868 .00000092 00000-0 00000-0 0 9996 2 22981 14.8548 3.0152 0005668 49.2790 130.4627 1.00259099 99591 RADUGA 31 [-] 1 23010U 94012A 21111.55013841 -.00000331 00000-0 00000-0 0 9993 2 23010 14.8220 2.9866 0006859 56.0716 92.1186 1.00248278 99477 RADUGA 32 [-] 1 23448U 94087A 21111.23035512 -.00000065 00000-0 00000-0 0 9998 2 23448 14.7431 5.6615 0001560 197.0974 160.1213 1.00277361113999 RADUGA-1 4 [-] 1 25642U 99010A 21110.96216341 -.00000367 00000-0 00000-0 0 9992 2 25642 15.0320 17.4292 0003246 329.4806 322.4968 1.00271687 81065 RADUGA-1 5 [-] 1 26477U 00049A 21111.31229774 -.00000326 00000-0 00000-0 0 9992 2 26477 12.8787 21.6085 0007550 26.7365 14.9478 1.00306659 75543 RADUGA-1 6 [-] 1 26936U 01045A 21111.06021419 -.00000170 00000-0 00000+0 0 9993 2 26936 12.8930 27.7193 0012557 147.7070 48.0958 0.97745941 70171 RADUGA-1 7 [-] 1 28194U 04010A 21111.50048512 .00000120 00000-0 00000-0 0 9993 2 28194 11.4823 34.7173 0002257 338.9470 38.7106 1.00310045 62535 RADUGA-1M 1 [-] 1 32373U 07058A 21111.44037958 .00000014 00000-0 00000-0 0 9999 2 32373 5.9760 66.7849 0005946 334.4598 47.8196 0.99392574 33680 RADUGA-1 8 [-] 1 34264U 09010A 21111.43732633 .00000069 00000-0 00000-0 0 9991 2 34264 8.4092 57.2669 0015796 346.8266 28.4893 0.99815256 44380 RADUGA-1M 2 [+] 1 36358U 10002A 21111.44125194 -.00000185 00000-0 00000-0 0 9999 2 36358 0.0654 254.4746 0003728 172.1443 26.9521 1.00271249 31214 RADUGA-1M 3 [+] 1 39375U 13062A 21111.28762955 .00000156 00000-0 00000-0 0 9991 2 39375 1.1839 94.4887 0001613 277.0573 336.5816 1.00272508 27245